K9UO Weather Reports


time (UTC)temp
F
wind
direction
speed
knots
gust
knots
rain 1hr
in
rain 24hr
in
rain mn
in
humidity
%
barometer
mb
20260508063007 50 228 4.3 7.8 0.00 0.00 0.00 49 1012.9
20260508061515 50 360 3.5 7.8 0.00 0.00 0.00 44 1013.0
20260508060005 49 360 4.3 5.2 0.00 0.00 0.00 37 1013.1
20260508054503 48 360 2.6 4.3 0.00 0.00 0.00 30 1013.3
20260508053002 49 227 0.9 3.5 0.00 0.00 0.00 34 1013.3
20260508051600 49 360 0.9 5.2 0.00 0.00 0.00 40 1013.4
20260508050055 50 226 0.0 5.2 0.00 0.00 0.00 45 1013.4
20260508044604 51 360 3.5 4.3 0.00 0.00 0.00 49 1013.3
20260508043102 51 10 0.0 3.5 0.00 0.00 0.00 46 1013.5
20260508041554 51 311 2.6 8.7 0.00 0.00 0.00 45 1013.4
20260508040047 51 219 5.2 8.7 0.00 0.00 0.00 43 1013.0
20260508034552 51 360 4.3 7.0 0.00 0.00 0.00 35 1012.9
20260508033043 51 205 3.5 6.1 0.00 0.00 0.00 34 1012.9
20260508031543 50 360 4.3 6.1 0.00 0.00 0.00 31 1013.0
20260508030046 50 360 3.5 6.1 0.00 0.00 0.00 25 1013.0
20260508024545 50 360 2.6 6.1 0.00 0.00 0.00 25 1013.1
20260508023040 50 214 2.6 5.2 0.00 0.00 0.00 21 1013.3
20260508021539 50 232 1.7 4.3 0.00 0.00 0.00 23 1013.3
20260508020044 50 217 0.9 4.3 0.00 0.00 0.00 28 1013.2
20260508014537 51 215 1.7 4.3 0.00 0.00 0.00 29 1013.1
20260508013037 51 212 0.9 4.3 0.00 0.00 0.00 34 1013.1
20260508011542 51 218 0.9 3.5 0.00 0.00 0.00 41 1012.9
20260508010036 51 226 2.6 5.2 0.00 0.00 0.00 45 1013.0
20260508004534 51 229 1.7 5.2 0.00 0.00 0.00 48 1013.0
20260508003033 52 244 1.7 5.2 0.00 0.00 0.00 52 1013.3
20260508001536 52 263 0.9 5.2 0.00 0.00 0.00 55 1013.4
20260508000033 52 245 2.6 9.6 0.00 0.00 0.00 56 1013.2
20260507234532 54 227 3.5 8.7 0.00 0.00 0.00 56 1013.3
20260507233034 54 219 6.1 12.2 0.00 0.00 0.00 56 1013.4
20260507231538 55 250 3.5 7.8 0.00 0.00 0.00 51 1013.5
20260507230029 56 254 3.5 5.2 0.00 0.00 0.00 49 1013.3
20260507224528 56 277 2.6 7.8 0.00 0.00 0.00 47 1013.1
20260507223028 56 243 3.5 8.7 0.00 0.00 0.00 47 1013.1
20260507221531 57 259 5.2 7.8 0.00 0.00 0.00 47 1012.9
20260507220027 57 219 2.6 6.1 0.00 0.00 0.00 46 1013.1
20260507214526 57 281 4.3 7.8 0.00 0.00 0.00 46 1012.9
20260507213028 57 233 4.3 9.6 0.00 0.00 0.00 48 1013.0
20260507211526 57 213 4.3 8.7 0.00 0.00 0.00 47 1013.0
20260507210025 57 244 5.2 10.4 0.00 0.00 0.00 46 1013.0
20260507204523 58 22 6.1 11.3 0.00 0.00 0.00 41 1013.1
20260507203024 57 222 3.5 8.7 0.00 0.00 0.00 44 1013.3
20260507201518 56 17 2.6 8.7 0.00 0.00 0.00 46 1013.5
20260507200020 55 351 4.3 7.0 0.00 0.00 0.00 45 1013.8
20260507194514 56 349 5.2 9.6 0.00 0.00 0.00 44 1014.0
20260507193015 57 279 4.3 8.7 0.00 0.00 0.00 45 1013.9
20260507191513 56 312 3.5 10.4 0.00 0.00 0.00 45 1013.8
20260507190009 55 311 7.0 11.3 0.00 0.00 0.00 47 1014.2
20260507184508 55 9 7.8 11.3 0.00 0.00 0.00 44 1014.0
20260507183027 55 276 6.1 13.0 0.00 0.00 0.00 45 1014.2
20260507181503 55 346 5.2 11.3 0.00 0.00 0.00 47 1014.3
20260507180000 54 327 7.0 15.6 0.00 0.00 0.00 46 1014.5
20260507174608 54 360 7.8 13.0 0.00 0.00 0.00 47 1014.7
20260507173103 54 270 5.2 12.2 0.00 0.00 0.00 48 1014.9
20260507171611 53 304 7.8 13.0 0.00 0.00 0.00 47 1015.1
20260507170057 53 338 7.0 13.0 0.00 0.00 0.00 46 1015.2
20260507164605 53 338 7.8 13.9 0.00 0.00 0.00 49 1015.4
20260507163050 52 21 7.0 15.6 0.00 0.00 0.00 47 1015.5
20260507161550 52 19 7.8 13.0 0.00 0.00 0.00 47 1015.4
20260507160045 51 322 4.3 11.3 0.00 0.00 0.00 50 1015.5
20260507154544 51 350 4.3 9.6 0.00 0.00 0.00 51 1015.4
20260507153047 50 333 7.8 10.4 0.00 0.00 0.00 50 1015.5
20260507151542 49 10 5.2 10.4 0.00 0.00 0.00 52 1015.3
20260507150037 49 227 3.5 10.4 0.00 0.00 0.00 53 1015.3
20260507144536 48 279 4.3 10.4 0.00 0.00 0.00 51 1015.4
20260507143033 48 284 3.5 11.3 0.00 0.00 0.00 53 1015.5
20260507141532 48 335 3.5 9.6 0.00 0.00 0.00 54 1015.5
20260507140031 47 360 2.6 7.8 0.00 0.00 0.00 54 1015.3
20260507134536 47 258 4.3 8.7 0.00 0.00 0.00 54 1015.4
20260507133029 46 242 3.5 7.8 0.00 0.00 0.00 55 1015.4
20260507131534 46 360 2.6 6.1 0.00 0.00 0.00 54 1015.3
20260507130026 45 21 3.5 7.8 0.00 0.00 0.00 55 1015.2
20260507124523 44 360 4.3 7.8 0.00 0.00 0.00 52 1015.3
20260507123021 43 343 1.7 5.2 0.00 0.00 0.00 46 1015.2
20260507121520 42 216 0.9 4.3 0.00 0.00 0.00 42 1015.2
20260507120019 42 232 0.9 3.5 0.00 0.00 0.00 44 1015.2
20260507114525 42 304 0.9 2.6 0.00 0.00 0.00 43 1015.2
20260507113017 41 265 0.9 4.3 0.00 0.00 0.00 41 1015.2
20260507111520 41 338 0.9 3.5 0.00 0.00 0.00 34 1015.0
20260507110014 40 317 0.9 1.7 0.00 0.00 0.00 31 1014.8
20260507104511 40 311 0.0 1.7 0.00 0.01 0.00 32 1014.8
20260507103011 40 329 0.0 3.5 0.00 0.01 0.00 32 1014.8
20260507101517 40 266 0.9 3.5 0.00 0.01 0.00 32 1014.7
20260507100008 40 282 0.9 3.5 0.00 0.01 0.00 31 1014.7
20260507094507 40 285 0.0 1.7 0.00 0.01 0.00 31 1014.7
20260507093006 40 285 0.0 1.7 0.00 0.01 0.00 30 1014.7
20260507091504 41 281 0.0 0.9 0.00 0.01 0.00 32 1014.8
20260507090001 41 282 0.0 0.9 0.00 0.01 0.00 35 1014.7
20260507084601 42 283 0.0 2.6 0.00 0.01 0.00 37 1014.5
20260507083058 42 252 0.9 3.5 0.00 0.01 0.00 38 1014.5
20260507081557 42 271 0.9 3.5 0.00 0.01 0.00 39 1014.5
20260507080056 43 290 1.7 4.3 0.00 0.01 0.00 39 1014.5
20260507074554 43 309 0.9 3.5 0.00 0.01 0.00 41 1014.5
20260507073052 43 257 0.0 3.5 0.00 0.01 0.00 42 1014.4
20260507071555 43 320 0.0 1.7 0.00 0.01 0.00 44 1014.5
20260507070059 44 304 0.9 3.5 0.00 0.01 0.00 45 1014.4
20260507064546 44 313 0.9 3.5 0.00 0.02 0.00 45 1014.5